Regional Weather Roundup
Issued by NWS Burlington, VT

Home | Current Version | Previous Version | Text Only | Print | Product List | Glossary On
Versions: 1 2 3 4 5 6 7 8 9 10 11 12 13 14 15 16 17 18 19 20 21 22 23 24 25 26 27 28 29 30 31 32 33 34 35 36 37 38 39 40 41 42 43 44 45 46 47 48 49 50
079
ASUS41 KBTV 191030
RWRBTV
VERMONT REGIONAL WEATHER ROUNDUP
NATIONAL WEATHER SERVICE BURLINGTON VT
600 AM EDT THU APR 19 2018

NOTE: "FAIR" INDICATES FEW OR NO CLOUDS BELOW 12,000 FEET WITH NO
SIGNIFICANT WEATHER AND/OR OBSTRUCTIONS TO VISIBILITY.

* THESE REPORTS ARE NOT UNDER NWS QUALITY CONTROL AND/OR DO NOT
  REPORT WEATHER SUCH AS PRECIPITATION AND FOG.

VTZ001>019-191100-
_____VERMONT_____


CITY           SKY/WX    TMP DP  RH WIND       PRES   REMARKS
BURLINGTON     CLOUDY    38  29  70 CALM      29.68S
MONTPELIER     CLOUDY    35  28  75 SW3       29.70R
MORRISVILLE    CLOUDY    34  30  85 CALM      29.68R
ST. JOHNSBURY*   N/A     35  31  85 MISG      29.66R
LYNDONVILLE*   CLOUDY    33  30  89 CALM      29.67F
MIDDLEBURY*    FAIR      34  29  80 CALM      29.68S
RUTLAND*       MOCLDY    35  28  75 S3        29.69F
SPRINGFIELD    CLOUDY    34  29  82 W5        29.69F WCI  30
HIGHGATE*      CLOUDY    34  31  88 W3        29.70F
NEWPORT*       CLOUDY    33  31  95 CALM      29.67S
BENNINGTON     LGT SNOW  34  29  82 SW5       29.70F WCI  30
ISLAND POND*     N/A     32 N/A N/A SW1         N/A
GALLUP MILLS*    N/A     32 N/A N/A MISG        N/A
UNION VILLAGE*   N/A     34 N/A N/A MISG        N/A
MT. MANSFIELD*   N/A     25 N/A N/A CALM        N/A

_____LAKE CHAMPLAIN_____


CITY           SKY/WX    TMP DP  RH WIND       PRES   REMARKS
BURTON ISLAND*   N/A     37  32  81 NW2         N/A
COLCHESTER RF*   N/A     37  30  75 W3          N/A

$$

NYZ007-026>031-035-052-083-087-191100-
_____NORTHERN NEW YORK_____


CITY           SKY/WX    TMP DP  RH WIND       PRES   REMARKS
PLATTSBURGH    CLOUDY    33  30  88 NE5       29.69R WCI  29
SARANAC LAKE   LGT SNOW  29  28  96 NW3       29.64R FOG
MASSENA        CLOUDY    33  31  92 W6        29.75R WCI  28
OGDENSBURG*    MOCLDY    32  29  88 NW8       29.76R WCI  25
POTSDAM*       CLOUDY    32  28  86 W6        29.73R WCI  26
STARK FALLS*     N/A     28 N/A N/A N2          N/A
WATERTOWN      LGT SNOW  32  31  96 N7        29.76R FOG     WCI  26
FT DRUM        FLURRIES  30  28  93 NW6       29.74R WCI  24
ALBANY         FLURRIES  36  30  79 W7        29.74S WCI  30
GLENS FALLS    CLOUDY    36  30  79 S7        29.69F WCI  30

$$
NHZ002-005-011-191100-
_____NEW HAMPSHIRE_____


CITY           SKY/WX    TMP DP  RH WIND       PRES   REMARKS
LEBANON        FAIR      35  27  72 CALM      29.66F
KEENE          CLOUDY    38  30  73 S3        29.71S
MT WASHINGTON  FOG       16  16 100 W36         N/A  VSB 0   WCI  -6
PLYMOUTH       MOCLDY    37  29  72 CALM      29.66F
WHITEFIELD     LGT SNOW  35  29  78 SW6       29.68R WCI  30

$$

_____REGIONAL QUEBEC LOCATIONS_____


CITY           SKY/WX    TMP DP  RH WIND       PRES   REMARKS
MONTREAL       MOCLDY    32  28  86 SW9       29.70R WCI  24
QUEBEC CITY    MOCLDY    32  30  93 SW5       29.60R WCI  27
SHERBROOKE     CLOUDY    32  30  93 SW7       29.66R WCI  26

_____REGIONAL ONTARIO LOCATIONS_____


CITY           SKY/WX    TMP DP  RH WIND       PRES   REMARKS
OTTAWA         CLOUDY    32  25  74 W6        29.74R WCI  26

______KEY______
VSB  - VISIBILITY IN MILES
WCI  - WIND CHILL INDEX
HX   - HEAT INDEX
$$
NNNN




USA.gov is the U.S. government's official web portal to all federal, state and local government web resources and services.